Flag for Finland Weather past 2 weeks in Pori, Finland

Now
43 °F

Drizzle. Low clouds.


Feels Like: 37 °F
Forecast: 48 / 50 °F
Wind: 10 mph from Southeast

Location: Pori Airport

Current Time: Oct 25, 2014 at 8:52:34 AM

Latest Report: Oct 25, 2014 at 8:20 AM


Visibility: N/A

Pressure: 30.01 "Hg

Humidity: 100%

Dew point: 43 °F

Location of PoriLocation

Historic Weather in Pori — Graph

°F

Pori temperature yesterday

Maximum temperature yesterday: 41 °F (at 8:50 PM)
Minimum temperature yesterday: 28 °F (at 12:20 AM)
Average temperature yesterday: 35 °F

Past Weeks' High & Low Weather Summary

 TemperatureHumidityPressure
High55 °F (Oct 10, 2:20 PM)100% (Oct 10, 7:20 AM)30.51 "Hg (Oct 10, 7:20 AM)
Low21 °F (Oct 23, 8:20 AM)51% (Oct 22, 2:20 PM)29.36 "Hg (Oct 20, 4:50 AM)
Average39 °F84%29.97 "Hg
* Reported Oct 10 7:20 AM — Oct 25 7:50 AM, Pori, Weather by CustomWeather, © 2014

Note: Actual official high and low records may vary slightly from our data, if they occured in-between our weather recording intervals... More about our weather records

Advertising

Pori weather history for previous 24 hours

 ConditionsComfort  
Time TempWeatherWind HumidityBarometerVisibility
7:50 AM
Oct 25
43 °FDrizzle. Low clouds.12 mph100%30.01 "HgN/A
7:20 AM43 °FDrizzle. Low clouds.14 mph93%30.04 "HgN/A
6:50 AM43 °FDrizzle. Low clouds.13 mph93%30.04 "Hg6 mi
6:20 AM43 °FDrizzle. Low clouds.13 mph93%30.04 "HgN/A
5:50 AM43 °FSprinkles. Low clouds.14 mph93%30.04 "Hg6 mi
5:20 AM43 °FSprinkles. Fog.15 mph87%30.04 "Hg4 mi
4:50 AM41 °FDrizzle. Low clouds.15 mph93%30.07 "HgN/A
4:20 AM41 °FDrizzle. Low clouds.16 mph93%30.07 "HgN/A
3:50 AM41 °FDrizzle. Overcast.17 mph87%30.07 "HgN/A
3:20 AM41 °FOvercast.17 mph87%30.09 "HgN/A
2:50 AM41 °FOvercast.17 mph81%30.09 "HgN/A
2:20 AM41 °FOvercast.17 mph81%30.09 "HgN/A
1:50 AM41 °FOvercast.21 mph76%30.09 "HgN/A
1:20 AM41 °FOvercast.18 mph76%30.12 "HgN/A
12:50 AM41 °FOvercast.16 mph76%30.12 "HgN/A
12:20 AM41 °FOvercast.18 mph76%30.12 "HgN/A
11:50 PM
Oct 24
41 °FOvercast.17 mph70%30.12 "HgN/A
11:20 PM41 °FOvercast.17 mph70%30.12 "HgN/A
10:50 PM41 °FOvercast.18 mph70%30.15 "HgN/A
10:20 PM41 °FOvercast.17 mph70%30.15 "HgN/A
9:50 PM41 °FOvercast.16 mph66%30.15 "HgN/A
9:20 PM41 °FOvercast.20 mph66%30.15 "HgN/A
8:50 PM41 °FOvercast.18 mph66%30.15 "HgN/A
8:20 PM39 °FOvercast.16 mph65%30.18 "HgN/A
7:50 PM39 °FOvercast.17 mph65%30.18 "HgN/A
7:20 PM39 °FOvercast.17 mph65%30.18 "HgN/A
6:50 PM39 °FOvercast.16 mph61%30.18 "HgN/A
6:20 PM39 °FOvercast.17 mph61%30.18 "HgN/A
5:50 PM37 °FOvercast.17 mph70%30.21 "HgN/A
5:20 PM36 °FLight rain. Overcast.15 mph81%30.21 "Hg5 mi
4:50 PM37 °FLight rain. More clouds than sun.18 mph70%30.21 "HgN/A
4:20 PM37 °FLight snow. Mostly cloudy.18 mph70%30.24 "HgN/A
3:50 PM39 °FLight rain. Mostly cloudy.20 mph56%30.24 "HgN/A
3:20 PM39 °FOvercast.20 mph56%30.24 "HgN/A
2:50 PM39 °FOvercast.20 mph56%30.24 "HgN/A
2:20 PM39 °FMostly cloudy.20 mph56%30.27 "HgN/A
1:50 PM39 °FOvercast.20 mph56%30.27 "HgN/A
1:20 PM39 °FMore clouds than sun.18 mph61%30.30 "HgN/A
12:50 PM37 °FBroken clouds.15 mph65%30.30 "HgN/A
12:20 PM37 °FMore clouds than sun.14 mph70%30.30 "HgN/A
11:50 AM36 °FPartly sunny.14 mph75%30.30 "HgN/A
11:20 AM36 °FPartly sunny.16 mph75%30.30 "HgN/A
10:50 AM34 °FMore clouds than sun.17 mph81%30.30 "HgN/A
10:20 AM34 °FPartly sunny.16 mph75%30.30 "HgN/A
9:50 AM34 °FOvercast.16 mph75%30.30 "HgN/A
9:20 AM32 °FPassing clouds.15 mph80%30.30 "HgN/A
8:50 AM32 °FPassing clouds.15 mph80%30.33 "HgN/A
8:20 AM32 °FPartly cloudy.16 mph80%30.33 "HgN/A
Weather by CustomWeather, © 2014

See weather overviewHow to use our weather pages